Regional Weather Roundup
Issued by NWS Bismarck, ND

Home | Current Version | Previous Version | Text Only | Print | Product List | Glossary On
Versions: 1 2 3 4 5 6 7 8 9 10 11 12 13 14 15 16 17 18 19 20 21 22 23 24 25 26 27 28 29 30 31 32 33 34 35 36 37 38 39 40 41 42 43 44 45 46 47 48 49 50
000
ASUS43 KBIS 281802
RWRBIS

NWR BROADCAST TEXT
NATIONAL WEATHER SERVICE BISMARCK ND
100 PM CDT WED SEP 28 2016

NOTE: "FAIR" INDICATES FEW OR NO CLOUDS BELOW 12,000 FEET WITH NO
SIGNIFICANT WEATHER AND/OR OBSTRUCTIONS TO VISIBILITY.


CITY           SKY/WX    TMP DP  RH WIND       PRES   REMARKS
WILLISTON      SUNNY     64  49  57 N5        30.26F
MINOT          SUNNY     66  42  41 E9        30.28R
MINOT AFB      SUNNY     66  41  40 E9        30.27R
BISMARCK       SUNNY     64  43  46 SE7       30.29S
DICKINSON      SUNNY     69  47  45 SE9       30.25R
GARRISON         N/A     67  37  33 E8        30.27S
HETTINGER ARPT SUNNY     70  46  42 SE8       30.27S
JAMESTOWN      MOSUNNY   55  46  71 W3        30.30S
BEACH          FAIR      64  54  68 N6        30.30S
CARRINGTON     CLOUDY    50  45  81 CALM      30.35R
HAZEN          FAIR      68  39  34 E7        30.28S
RUGBY          FAIR      57  46  67 CALM      30.30S
STANLEY        FAIR      66  45  45 SE8       30.29S
$$

CITY           SKY/WX    TMP DP  RH WIND       PRES   REMARKS
GRAND FORKS    CLOUDY    58  45  62 CALM      30.31S
GRAND FORKS AF CLOUDY    56  46  67 VRB1      30.32R
DEVILS LAKE    CLOUDY    51  44  77 CALM      30.33S
FARGO          CLOUDY    57  47  69 NW3       30.30R
CANDO          CLOUDY    55  48  76 S5        30.34S
CAVALIER       FAIR      55  45  67 W3        30.32S
GRAFTON          N/A     55  45  67 NW5       30.34S
GWINNER        FAIR      59  46  63 NE10      30.30S
LANGDON        FAIR      59  46  63 N3        30.32S
ROLLA          FAIR      59  41  51 N5        30.31S
WALHALLA       FAIR      55  54  94 CALM      30.33R
$$

CITY           SKY/WX    TMP DP  RH WIND       PRES   REMARKS
ABERDEEN       SUNNY     59  43  55 NE7       30.29S
MOBRIDGE       SUNNY     65  41  41 SE8       30.26S
BUFFALO          N/A     77  50  38 CALM      30.19S
RAPID CITY     SUNNY     77  46  33 N9        30.26S
GLASGOW        SUNNY     64  46  52 VRB7      30.27F
SIDNEY         SUNNY     62  50  64 CALM      30.26F
WOLF POINT     SUNNY     64  47  53 NW3       30.27F
GLENDIVE       SUNNY     62  50  64 CALM      30.27F
MILES CITY     SUNNY     65  49  56 VRB5      30.27F
BAKER          SUNNY     66  51  58 NW5       30.27F
$$

CITY           SKY/WX    TMP DP  RH WIND       PRES   REMARKS
BILLINGS       SUNNY     60  46  59 NE7       30.29F
GREAT FALLS    SUNNY     56  39  53 W5        30.27F
$$





USA.gov is the U.S. government's official web portal to all federal, state and local government web resources and services.